Regional Weather Roundup
Issued by NWS

Home | Current Version | Previous Version | Graphics & Text | Print | Product List | Glossary On
Versions: 1 2 3 4 5 6 7 8 9 10 11 12 13 14 15 16 17 18 19 20 21 22 23 24 25 26 27 28 29 30 31 32 33 34 35 36 37 38 39 40 41 42 43 44 45 46
000
ASUS45 KSLC 290910
RWRUT

UTAH REGIONAL WEATHER ROUNDUP
NATIONAL WEATHER SERVICE SALT LAKE CITY UT
300 AM MDT SAT AUG 29 2015

UTZ001>011-023>025-291000-

NORTHERN UTAH

CITY           SKY/WX    TMP DP  RH WIND       PRES   REMARKS
BRIGHAM CITY   PTCLDY    64  49  59 CALM      30.05F
HILL AFB       CLEAR     71  37  29 E15       30.08S
LOGAN          CLEAR     59  46  62 CALM      30.08F
OGDEN          CLEAR     71  38  29 S10       30.04F
PROVO AIRPORT  CLEAR     61  45  55 CALM      30.10F
SALT LAKE CITY PTCLDY    73  39  29 SE14      30.05R
VERNAL         PTCLDY    66  43  43 W5        30.20S
WENDOVER       MOCLDY    72  43  35 NE7       30.01F
HEBER CITY     CLEAR     50  43  76 CALM      30.21S
WEST JORDAN    CLEAR     72  37  28 SW9       30.09S

$$

UTZ012>022-026-027-291000-

SOUTHERN/CENTRAL UTAH

CITY           SKY/WX    TMP DP  RH WIND       PRES   REMARKS
BLANDING       CLEAR     61  31  33 NW7       30.28S
BRYCE CANYON   CLEAR     50  44  80 W8        30.38S
CEDAR CITY     CLEAR     69  43  38 SE8       30.18S
DELTA          CLEAR     65  33  30 S10       30.09S
HANKSVILLE     CLEAR     61  48  63 CALM      30.14S
MILFORD        CLEAR     64  43  46 S6        30.12S
MOAB/CYNLANDS  CLEAR     68  41  37 CALM      30.11S
PRICE          CLEAR     62  36  37 N6        30.23S
ST GEORGE      SUNNY     81  48  32 SE7       29.99R
KANAB          CLEAR     66  52  59 N9        30.21S

$$

REGIONAL REPORTS     COLORADO/ARIZONA

CITY           SKY/WX    TMP DP  RH WIND       PRES   REMARKS
CRAIG, CO      CLEAR     51  43  74 E3        30.31S
GRAND JUNCTION CLEAR     61  45  55 SE7       30.17S
RIFLE          CLEAR     55  45  68 SE5       30.26S
MONTROSE       CLEAR     58  46  64 SE6       30.26F
CORTEZ         CLEAR     52  42  69 NE5       30.24R
PAGE, AZ       CLEAR     78  41  26 SW6       30.09F
GRAND CANYON   CLEAR     50  42  74 CALM      30.29F
KINGMAN        CLEAR     74  51  44 SE5       30.01F
FLAGSTAFF      CLEAR     49  46  90 NE6       30.32F

$$

REGIONAL REPORTS    NEVADA/IDAHO/WYOMING

CITY           SKY/WX    TMP DP  RH WIND       PRES   REMARKS
LAS VEGAS, NV  PTCLDY    91  52  26 CALM      29.84S
ELY            CLEAR     58  42  55 S12       30.19F
ELKO           MOCLDY    61  47  59 E5        30.05S
POCATELLO, ID  CLEAR     76  38  25 NE8       30.02F
EVANSTON, WY   CLEAR     61  36  39 SE7       30.30F
ROCK SPRINGS   CLEAR     61  28  28 S9        30.30S
KEMMERER       PTCLDY    52  32  46 N12       30.33S

$$



USA.gov is the U.S. government's official web portal to all federal, state and local government web resources and services.